Time,TemperatureF,DewpointF,PressureIn,WindDirection,WindDirectionDegrees,WindSpeedMPH,WindSpeedGustMPH,Humidity,HourlyPrecipIn,Conditions,Clouds,dailyrainin,SolarRadiationWatts/m^2,SoftwareType,DateUTC
2013-03-22 00:14:00,24.1,17.0,29.99,NNW,347,0.0,2.0,75,0.00,,,0.00,0,weatherlink.com 1.10,2013-03-22 04:14:00,
2013-03-22 00:28:00,23.5,17.0,29.99,NNW,347,0.0,1.0,76,0.00,,,0.00,0,weatherlink.com 1.10,2013-03-22 04:28:00,
2013-03-22 00:43:00,23.0,17.0,29.99,NNW,347,0.0,0.0,78,0.00,,,0.00,0,weatherlink.com 1.10,2013-03-22 04:43:00,
2013-03-22 00:58:00,22.9,17.0,29.99,NNW,347,0.0,0.0,79,0.00,,,0.00,0,weatherlink.com 1.10,2013-03-22 04:58:00,
2013-03-22 01:14:00,22.5,18.0,29.99,NNW,347,0.0,1.0,81,0.00,,,0.00,0,weatherlink.com 1.10,2013-03-22 05:14:00,
2013-03-22 01:29:00,22.0,18.0,30.00,NNW,347,0.0,2.0,83,0.00,,,0.00,0,weatherlink.com 1.10,2013-03-22 05:29:00,
2013-03-22 01:44:00,21.8,17.0,30.00,NNW,347,0.0,2.0,83,0.00,,,0.00,0,weatherlink.com 1.10,2013-03-22 05:44:00,
2013-03-22 01:59:00,21.8,17.0,29.99,NNW,347,0.0,2.0,83,0.00,,,0.00,0,weatherlink.com 1.10,2013-03-22 05:59:00,
2013-03-22 02:14:00,21.7,17.0,30.00,NNW,347,2.0,3.0,83,0.00,,,0.00,0,weatherlink.com 1.10,2013-03-22 06:14:00,
2013-03-22 02:29:00,21.5,17.0,30.00,NNW,347,0.0,2.0,83,0.00,,,0.00,0,weatherlink.com 1.10,2013-03-22 06:29:00,
2013-03-22 02:44:00,21.6,17.0,29.99,NNW,347,0.0,1.0,83,0.00,,,0.00,0,weatherlink.com 1.10,2013-03-22 06:44:00,
2013-03-22 02:59:00,21.7,17.0,29.99,NNW,347,0.0,2.0,82,0.00,,,0.00,0,weatherlink.com 1.10,2013-03-22 06:59:00,
2013-03-22 03:15:00,21.5,17.0,29.99,NNW,347,1.0,2.0,83,0.00,,,0.00,0,weatherlink.com 1.10,2013-03-22 07:15:00,
2013-03-22 03:30:00,20.9,17.0,30.00,NNW,347,0.0,3.0,85,0.00,,,0.00,0,weatherlink.com 1.10,2013-03-22 07:30:00,
2013-03-22 04:00:00,21.0,17.0,30.00,NNW,347,1.0,2.0,85,0.00,,,0.00,0,weatherlink.com 1.10,2013-03-22 08:00:00,
2013-03-22 04:15:00,21.0,17.0,29.99,NNW,347,0.0,3.0,85,0.00,,,0.00,0,weatherlink.com 1.10,2013-03-22 08:15:00,
2013-03-22 04:30:00,21.0,17.0,29.99,NNW,347,2.0,3.0,84,0.00,,,0.00,0,weatherlink.com 1.10,2013-03-22 08:30:00,
2013-03-22 04:45:00,21.0,17.0,30.00,NNW,347,0.0,3.0,84,0.00,,,0.00,0,weatherlink.com 1.10,2013-03-22 08:45:00,
2013-03-22 05:00:00,20.9,17.0,30.00,NNW,347,0.0,2.0,84,0.00,,,0.00,0,weatherlink.com 1.10,2013-03-22 09:00:00,
2013-03-22 05:15:00,20.8,17.0,30.00,NNW,347,1.0,2.0,84,0.00,,,0.00,0,weatherlink.com 1.10,2013-03-22 09:15:00,
2013-03-22 06:16:00,20.1,17.0,30.00,NNW,347,0.0,1.0,86,0.00,,,0.00,0,weatherlink.com 1.10,2013-03-22 10:16:00,
2013-03-22 06:47:00,19.9,17.0,30.00,NNW,347,0.0,2.0,87,0.00,,,0.00,0,weatherlink.com 1.10,2013-03-22 10:47:00,
2013-03-22 07:32:00,19.4,16.0,30.01,NNW,347,0.0,1.0,88,0.00,,,0.00,0,weatherlink.com 1.10,2013-03-22 11:32:00,
2013-03-22 07:47:00,19.7,17.0,30.01,NNW,347,0.0,1.0,88,0.00,,,0.00,7,weatherlink.com 1.10,2013-03-22 11:47:00,
2013-03-22 08:02:00,19.7,17.0,30.01,NNW,347,0.0,1.0,88,0.00,,,0.00,14,weatherlink.com 1.10,2013-03-22 12:02:00,
2013-03-22 08:18:00,19.8,17.0,30.01,NNW,347,1.0,2.0,88,0.00,,,0.00,25,weatherlink.com 1.10,2013-03-22 12:18:00,
2013-03-22 08:33:00,20.5,17.0,30.01,NNW,347,0.0,3.0,87,0.00,,,0.00,65,weatherlink.com 1.10,2013-03-22 12:33:00,
2013-03-22 08:47:00,21.3,18.0,30.00,NNW,347,2.0,2.0,86,0.00,,,0.00,109,weatherlink.com 1.10,2013-03-22 12:47:00,
2013-03-22 09:03:00,22.9,19.0,30.01,NNW,337,1.0,3.0,85,0.00,,,0.00,171,weatherlink.com 1.10,2013-03-22 13:03:00,
2013-03-22 09:18:00,24.2,19.0,30.01,NNW,328,0.0,5.0,81,0.00,,,0.00,230,weatherlink.com 1.10,2013-03-22 13:18:00,
2013-03-22 09:33:00,25.6,20.0,30.01,NNW,328,0.0,4.0,80,0.00,,,0.00,279,weatherlink.com 1.10,2013-03-22 13:33:00,
2013-03-22 09:48:00,27.0,20.0,30.01,WSW,247,5.0,7.0,75,0.00,,,0.00,343,weatherlink.com 1.10,2013-03-22 13:48:00,
2013-03-22 10:03:00,27.9,20.0,30.01,WNW,302,3.0,6.0,73,0.00,,,0.00,374,weatherlink.com 1.10,2013-03-22 14:03:00,
2013-03-22 10:18:00,28.3,20.0,30.01,NW,310,1.0,8.0,70,0.00,,,0.00,427,weatherlink.com 1.10,2013-03-22 14:18:00,
2013-03-22 10:34:00,29.0,20.0,30.01,West,263,2.0,7.0,68,0.00,,,0.00,476,weatherlink.com 1.10,2013-03-22 14:34:00,
2013-03-22 10:49:00,30.1,20.0,30.01,NNW,332,0.0,6.0,66,0.00,,,0.00,520,weatherlink.com 1.10,2013-03-22 14:49:00,
2013-03-22 11:04:00,30.4,19.0,30.01,West,274,2.0,7.0,62,0.00,,,0.00,566,weatherlink.com 1.10,2013-03-22 15:04:00,
2013-03-22 11:19:00,30.7,18.0,30.00,WNW,285,5.0,9.0,60,0.00,,,0.00,601,weatherlink.com 1.10,2013-03-22 15:19:00,
2013-03-22 11:34:00,30.9,18.0,30.01,West,267,4.0,8.0,59,0.00,,,0.00,643,weatherlink.com 1.10,2013-03-22 15:34:00,
2013-03-22 11:49:00,32.1,17.0,30.01,NW,317,4.0,8.0,55,0.00,,,0.00,679,weatherlink.com 1.10,2013-03-22 15:49:00,
2013-03-22 12:04:00,32.1,17.0,30.01,NW,308,8.0,11.0,55,0.00,,,0.00,708,weatherlink.com 1.10,2013-03-22 16:04:00,
2013-03-22 12:21:00,32.8,18.0,30.01,WNW,291,3.0,11.0,55,0.00,,,0.00,733,weatherlink.com 1.10,2013-03-22 16:21:00,
2013-03-22 12:35:00,33.2,18.0,30.01,WSW,256,4.0,10.0,54,0.00,,,0.00,758,weatherlink.com 1.10,2013-03-22 16:35:00,
2013-03-22 13:05:00,34.7,18.0,30.01,West,261,7.0,12.0,51,0.00,,,0.00,800,weatherlink.com 1.10,2013-03-22 17:05:00,
2013-03-22 13:20:00,35.2,18.0,30.00,WNW,303,7.0,13.0,49,0.00,,,0.00,809,weatherlink.com 1.10,2013-03-22 17:20:00,
2013-03-22 13:35:00,35.9,18.0,30.00,NNW,335,8.0,12.0,48,0.00,,,0.00,814,weatherlink.com 1.10,2013-03-22 17:35:00,
2013-03-22 13:50:00,35.9,18.0,30.00,NW,316,4.0,11.0,48,0.00,,,0.00,826,weatherlink.com 1.10,2013-03-22 17:50:00,
2013-03-22 14:05:00,36.8,18.0,29.99,WSW,252,6.0,10.0,47,0.00,,,0.00,817,weatherlink.com 1.10,2013-03-22 18:05:00,
2013-03-22 14:36:00,37.8,18.0,29.98,WNW,283,2.0,11.0,44,0.00,,,0.00,810,weatherlink.com 1.10,2013-03-22 18:36:00,
2013-03-22 14:52:00,38.0,17.0,29.98,WNW,298,4.0,10.0,42,0.00,,,0.00,800,weatherlink.com 1.10,2013-03-22 18:52:00,
2013-03-22 15:22:00,38.9,17.0,29.96,WSW,254,3.0,12.0,42,0.00,,,0.00,779,weatherlink.com 1.10,2013-03-22 19:22:00,
2013-03-22 15:52:00,40.2,17.0,29.95,WNW,295,7.0,11.0,39,0.00,,,0.00,737,weatherlink.com 1.10,2013-03-22 19:52:00,
2013-03-22 16:07:00,40.5,17.0,29.95,North,4,4.0,9.0,39,0.00,,,0.00,701,weatherlink.com 1.10,2013-03-22 20:07:00,
2013-03-22 16:22:00,40.4,18.0,29.95,WSW,256,6.0,12.0,40,0.00,,,0.00,659,weatherlink.com 1.10,2013-03-22 20:22:00,
2013-03-22 16:37:00,40.5,18.0,29.93,West,275,3.0,10.0,40,0.00,,,0.00,571,weatherlink.com 1.10,2013-03-22 20:37:00,
2013-03-22 16:52:00,41.1,18.0,29.93,North,354,2.0,9.0,40,0.00,,,0.00,548,weatherlink.com 1.10,2013-03-22 20:52:00,
2013-03-22 17:07:00,40.6,18.0,29.93,NW,305,6.0,10.0,40,0.00,,,0.00,541,weatherlink.com 1.10,2013-03-22 21:07:00,
2013-03-22 17:23:00,41.1,18.0,29.92,WNW,287,2.0,11.0,40,0.00,,,0.00,496,weatherlink.com 1.10,2013-03-22 21:23:00,
2013-03-22 17:38:00,41.7,18.0,29.92,WNW,301,7.0,10.0,39,0.00,,,0.00,448,weatherlink.com 1.10,2013-03-22 21:38:00,
2013-03-22 17:53:00,41.1,18.0,29.92,West,274,4.0,14.0,40,0.00,,,0.00,399,weatherlink.com 1.10,2013-03-22 21:53:00,
2013-03-22 18:09:00,41.1,18.0,29.93,NNW,337,5.0,12.0,40,0.00,,,0.00,341,weatherlink.com 1.10,2013-03-22 22:09:00,
2013-03-22 18:24:00,40.9,19.0,29.94,NW,318,4.0,10.0,41,0.00,,,0.00,292,weatherlink.com 1.10,2013-03-22 22:24:00,
2013-03-22 18:38:00,40.3,18.0,29.95,NNW,347,4.0,9.0,41,0.00,,,0.00,239,weatherlink.com 1.10,2013-03-22 22:38:00,
2013-03-22 18:54:00,39.3,17.0,29.95,NNW,341,5.0,9.0,41,0.00,,,0.00,178,weatherlink.com 1.10,2013-03-22 22:54:00,
2013-03-22 19:08:00,38.9,18.0,29.96,NNE,12,3.0,8.0,43,0.00,,,0.00,120,weatherlink.com 1.10,2013-03-22 23:08:00,
2013-03-22 19:23:00,38.3,18.0,29.96,North,4,1.0,8.0,44,0.00,,,0.00,69,weatherlink.com 1.10,2013-03-22 23:23:00,
2013-03-22 19:39:00,37.4,18.0,29.97,WNW,299,1.0,8.0,46,0.00,,,0.00,23,weatherlink.com 1.10,2013-03-22 23:39:00,
2013-03-22 19:55:00,36.0,18.0,29.97,North,11,5.0,8.0,48,0.00,,,0.00,7,weatherlink.com 1.10,2013-03-22 23:55:00,
2013-03-22 20:09:00,35.1,18.0,29.98,NNE,12,2.0,6.0,50,0.00,,,0.00,0,weatherlink.com 1.10,2013-03-23 00:09:00,
2013-03-22 20:24:00,34.3,18.0,29.98,NNE,18,3.0,7.0,52,0.00,,,0.00,0,weatherlink.com 1.10,2013-03-23 00:24:00,
2013-03-22 20:39:00,33.8,18.0,29.99,NNE,18,2.0,4.0,53,0.00,,,0.00,0,weatherlink.com 1.10,2013-03-23 00:39:00,
2013-03-22 20:54:00,33.3,18.0,29.98,NNE,18,0.0,4.0,54,0.00,,,0.00,0,weatherlink.com 1.10,2013-03-23 00:54:00,
2013-03-22 21:09:00,32.7,18.0,29.98,NNE,18,2.0,4.0,55,0.00,,,0.00,0,weatherlink.com 1.10,2013-03-23 01:09:00,
2013-03-22 21:24:00,32.3,18.0,29.98,NNE,18,0.0,3.0,57,0.00,,,0.00,0,weatherlink.com 1.10,2013-03-23 01:24:00,
2013-03-22 21:39:00,31.8,18.0,29.98,NNE,18,2.0,4.0,57,0.00,,,0.00,0,weatherlink.com 1.10,2013-03-23 01:39:00,
2013-03-22 21:54:00,31.5,18.0,29.98,NNE,18,0.0,2.0,57,0.00,,,0.00,0,weatherlink.com 1.10,2013-03-23 01:54:00,
2013-03-22 22:10:00,31.4,18.0,29.99,NNE,18,0.0,1.0,58,0.00,,,0.00,0,weatherlink.com 1.10,2013-03-23 02:10:00,
2013-03-22 22:25:00,31.1,18.0,29.99,NNE,18,3.0,3.0,58,0.00,,,0.00,0,weatherlink.com 1.10,2013-03-23 02:25:00,
2013-03-22 22:40:00,31.0,18.0,29.99,NNE,18,0.0,3.0,58,0.00,,,0.00,0,weatherlink.com 1.10,2013-03-23 02:40:00,
2013-03-22 22:55:00,30.8,17.0,30.00,NNE,18,1.0,2.0,58,0.00,,,0.00,0,weatherlink.com 1.10,2013-03-23 02:55:00,
2013-03-22 23:10:00,30.7,18.0,30.01,NNE,18,0.0,2.0,59,0.00,,,0.00,0,weatherlink.com 1.10,2013-03-23 03:10:00,
2013-03-22 23:25:00,30.5,18.0,30.02,NNE,18,1.0,3.0,59,0.00,,,0.00,0,weatherlink.com 1.10,2013-03-23 03:25:00,
2013-03-22 23:40:00,30.3,18.0,30.02,NNE,18,2.0,2.0,61,0.00,,,0.00,0,weatherlink.com 1.10,2013-03-23 03:40:00,
2013-03-22 23:55:00,29.8,18.0,30.02,NNE,18,1.0,2.0,62,0.00,,,0.00,0,weatherlink.com 1.10,2013-03-23 03:55:00,